Weather History for Wainwright, AK

Change the Weather History Date:

Wednesday, August 28, 2013

  Actual Average (PABR) Record (PABR)
Temperature  
Mean Temperature 34 °F 37 °F  
Max Temperature 37 °F 42 °F 58 °F (1959)
Min Temperature 33 °F 33 °F 21 °F (1922)
Degree Days  
Heating Degree Days 30 28  
Month to date heating degree days 723  
Since 1 June heating degree days 2350  
Since 1 July heating degree days 1470  
Cooling Degree Days 0    
Month to date cooling degree days  
Year to date cooling degree days  
Since 1 June cooling degree days  
Moisture  
Dew Point 33 °F    
Average Humidity 94    
Maximum Humidity 100    
Minimum Humidity 92    
Precipitation  
Precipitation 0.01 in 0.04 in 0.18 in (2011)
Month to date precipitation 0.96  
Year to date precipitation 2.96  
Snow  
Snow 0.00 in 0.00 in 0.40 in (1967)
Month to date snowfall 0.7  
Since 1 June snowfall 1.6  
Since 1 July snowfall 0.9  
Snow Depth -    
Sea Level Pressure  
Sea Level Pressure 29.61 in    
Wind  
Wind Speed 8 mph (SW)    
Max Wind Speed 10 mph    
Max Gust Speed -    
Visibility 2 miles    
Events Fog , Rain    
T = Trace of Precipitation, MM = Missing Value Source: NWS Daily Summary

Daily Weather History Graph

Daily Weather History Graph

Search for Another Location

Airport:

Trip Planner

Search our weather history database for the weather conditions in past years. The results will help you decide how hot, cold, wet, or windy it might be!

Date:

Astronomy

Aug. 28, 2013 Rise Set
Actual Time 6:35 AM AKDT 10:43 PM AKDT
Civil Twilight 5:09 AM AKDT 12:07 AM AKDT
Nautical Twilight Sun does not rise Sun does not rise
Astronomical Twilight Sun does not rise Sun does not rise
Moon No Moon Rise No Moon Set
Length of Visible Light 18h 57m
Length of Day
16h 07m
Last Quarter, 46% of the Moon is Illuminated
Aug 28
Last Quarter
Sep 5
New
Sep 12
First Quarter
Sep 19
Full
Sep 26
Last Quarter

Hourly Weather History & Observations

Time (AKDT) Temp. Windchill Dew Point Humidity Pressure Visibility Wind Dir Wind Speed Gust Speed Precip Events Conditions
12:53 AM 34.0 °F 27.2 °F 32.0 °F 92% 29.58 in 4.0 mi SW 8.1 mph - 0.00 in Rain Light Rain
1:13 AM 33.8 °F 26.4 °F 32.0 °F 93% 29.58 in 1.8 mi SW 9.2 mph - 0.00 in   Overcast
1:20 AM 33.8 °F 27.0 °F 32.0 °F 93% 29.58 in 0.8 mi SW 8.1 mph - 0.00 in   Overcast
1:28 AM 33.8 °F 27.0 °F 32.0 °F 93% 29.58 in 0.5 mi SW 8.1 mph - 0.00 in Fog , Rain Light Rain
1:35 AM 33.8 °F 27.0 °F 32.0 °F 93% 29.58 in 0.5 mi SW 8.1 mph - 0.00 in Fog , Rain Light Rain
1:43 AM 33.8 °F 26.4 °F 32.0 °F 93% 29.58 in 0.5 mi SW 9.2 mph - 0.00 in Fog , Rain Light Rain
1:53 AM 34.0 °F 26.6 °F 32.0 °F 92% 29.59 in 0.5 mi SW 9.2 mph - 0.00 in Fog , Rain Light Rain
2:16 AM 33.8 °F 27.7 °F 32.0 °F 93% 29.58 in 0.2 mi SW 6.9 mph - 0.00 in Fog Fog
2:53 AM 33.1 °F 26.1 °F 32.0 °F 96% 29.58 in 0.8 mi WSW 8.1 mph - 0.00 in   Overcast
3:53 AM 34.0 °F 28.8 °F 32.0 °F 92% 29.57 in 0.2 mi SW 5.8 mph - N/A Fog Fog
4:53 AM 34.0 °F 27.2 °F 32.0 °F 92% 29.58 in 0.2 mi SW 8.1 mph - N/A Fog Fog
5:53 AM 35.1 °F 29.3 °F 33.1 °F 92% 29.57 in 0.2 mi SW 6.9 mph - N/A Fog Fog
6:53 AM 35.1 °F 29.3 °F 33.1 °F 92% 29.57 in 0.2 mi SSW 6.9 mph - N/A Fog Fog
7:53 AM 35.1 °F 28.6 °F 34.0 °F 96% 29.57 in 0.2 mi SW 8.1 mph - N/A Fog Fog
8:53 AM 35.1 °F 28.6 °F 34.0 °F 96% 29.57 in 0.2 mi SSW 8.1 mph - N/A Fog Fog
9:53 AM 36.0 °F 30.3 °F 34.0 °F 93% 29.57 in 0.2 mi SW 6.9 mph - 0.00 in Fog , Rain Light Rain
10:53 AM 35.1 °F 27.9 °F 34.0 °F 96% 29.58 in 0.2 mi SW 9.2 mph - 0.01 in Fog , Rain Light Rain
11:53 AM 36.0 °F 30.3 °F 34.0 °F 93% 29.58 in 0.2 mi SW 6.9 mph - 0.00 in Fog , Rain Light Rain
12:53 PM 36.0 °F 29.6 °F 34.0 °F 93% 29.59 in 0.2 mi WSW 8.1 mph - 0.00 in Fog , Rain Light Rain
1:53 PM 36.0 °F 30.3 °F 35.1 °F 97% 29.60 in 0.2 mi WSW 6.9 mph - 0.00 in Fog Fog
2:53 PM 36.0 °F 30.3 °F 35.1 °F 97% 29.61 in 0.5 mi WSW 6.9 mph - 0.00 in Fog , Rain Light Rain
3:11 PM 35.6 °F 30.7 °F 35.6 °F 100% 29.61 in 1.5 mi WSW 5.8 mph - 0.00 in Rain Light Rain
3:21 PM 35.6 °F 30.7 °F 35.6 °F 100% 29.61 in 2.0 mi WSW 5.8 mph - 0.00 in Rain Light Rain
3:43 PM 35.6 °F 29.9 °F 33.8 °F 93% 29.61 in 3.0 mi SW 6.9 mph - 0.00 in Rain Light Rain
3:53 PM 36.0 °F 29.6 °F 34.0 °F 93% 29.62 in 5.0 mi SW 8.1 mph - 0.00 in Rain Light Rain
4:53 PM 36.0 °F 29.0 °F 34.0 °F 93% 29.63 in 6.0 mi WSW 9.2 mph - 0.00 in Rain Light Rain
5:35 PM 35.6 °F 28.6 °F 33.8 °F 93% 29.63 in 5.0 mi WSW 9.2 mph - 0.00 in Rain Light Rain
5:53 PM 35.1 °F 28.6 °F 34.0 °F 96% 29.63 in 1.2 mi WSW 8.1 mph - 0.00 in Rain Light Rain
5:58 PM 35.6 °F 29.2 °F 33.8 °F 93% 29.63 in 0.5 mi WSW 8.1 mph - 0.00 in Fog Fog
6:10 PM 35.6 °F 29.9 °F 33.8 °F 93% 29.63 in 0.2 mi SW 6.9 mph - 0.00 in Fog Fog
6:53 PM 35.1 °F 27.9 °F 33.1 °F 92% 29.64 in 0.2 mi WSW 9.2 mph - 0.00 in Fog Fog
7:53 PM 34.0 °F 28.0 °F 32.0 °F 92% 29.65 in 0.2 mi WSW 6.9 mph - 0.00 in Fog , Rain Light Rain
8:27 PM 35.6 °F 28.6 °F 33.8 °F 93% 29.65 in 1.2 mi WSW 9.2 mph - 0.00 in Rain Light Rain
8:44 PM 35.6 °F 28.0 °F 33.8 °F 93% 29.66 in 2.0 mi WSW 10.4 mph - 0.00 in Rain Light Rain
8:53 PM 35.1 °F 27.4 °F 33.1 °F 92% 29.66 in 3.0 mi WSW 10.4 mph - 0.00 in   Overcast
9:19 PM 35.6 °F 28.0 °F 33.8 °F 93% 29.66 in 2.0 mi WSW 10.4 mph - N/A   Overcast
9:32 PM 35.6 °F 29.2 °F 33.8 °F 93% 29.67 in 1.8 mi WSW 8.1 mph - N/A   Overcast
9:41 PM 35.6 °F 29.2 °F 33.8 °F 93% 29.67 in 2.0 mi WSW 8.1 mph - N/A   Overcast
9:51 PM 35.6 °F 28.0 °F 33.8 °F 93% 29.67 in 3.0 mi WSW 10.4 mph - N/A   Overcast
9:53 PM 35.1 °F 27.4 °F 33.1 °F 92% 29.67 in 4.0 mi WSW 10.4 mph - N/A   Overcast
10:53 PM 34.0 °F 27.2 °F 32.0 °F 92% 29.68 in 9.0 mi SW 8.1 mph - N/A   Overcast
11:53 PM 34.0 °F 26.6 °F 32.0 °F 92% 29.69 in 8.0 mi SW 9.2 mph - N/A   Overcast